FW2602 Weather Reports


Display with metric or nautical units.
time (UTC)temp
F
wind
direction
speed
MPH
gust
MPH
rain 1hr
in
rain 24hr
in
rain mn
in
humidity
%
barometer
mb
20260904175519 71 275 6.0 11.0 0.00 0.00 0.00 67 1011.2
20260904175023 71 255 3.0 8.0 0.00 0.00 0.00 69 1011.4
20260904174512 72 326 0.0 10.0 0.00 0.00 0.00 68 1011.4
20260904174016 72 303 6.0 12.0 0.00 0.00 0.00 66 1011.3
20260904173523 72 242 6.0 12.0 0.00 0.00 0.00 65 1011.5
20260904173008 72 307 3.0 9.0 0.00 0.00 0.00 67 1011.5
20260904172519 72 276 1.0 13.0 0.00 0.00 0.00 70 1011.5
20260904172019 72 298 8.0 13.0 0.00 0.00 0.00 65 1011.5
20260904171509 73 307 6.0 12.0 0.00 0.00 0.00 64 1011.5
20260904171014 72 283 0.0 9.0 0.00 0.00 0.00 63 1011.4
20260904170519 73 281 1.0 9.0 0.00 0.00 0.00 64 1011.5
20260904170022 73 282 1.0 8.0 0.00 0.00 0.00 67 1011.4
20260904165528 72 79 1.0 9.0 0.00 0.00 0.00 66 1011.4
20260904165013 72 325 2.0 8.0 0.00 0.00 0.00 66 1011.4
20260904164517 71 297 3.0 7.0 0.00 0.00 0.00 67 1011.3
20260904164013 72 310 2.0 7.0 0.00 0.00 0.00 68 1011.4
20260904163527 72 210 0.0 10.0 0.00 0.00 0.00 68 1011.4
20260904163009 71 285 4.0 13.0 0.00 0.00 0.00 70 1011.4
20260904162518 71 277 2.0 13.0 0.00 0.00 0.00 71 1011.5
20260904162021 71 301 5.0 10.0 0.00 0.00 0.00 72 1011.6
20260904161507 71 288 4.0 9.0 0.00 0.00 0.00 70 1011.7
20260904161012 71 288 4.0 7.0 0.00 0.00 0.00 72 1011.6
20260904160521 71 291 1.0 7.0 0.00 0.00 0.00 73 1011.7
20260904160018 71 307 4.0 12.0 0.00 0.00 0.00 73 1011.8
20260904155518 70 336 4.0 12.0 0.00 0.00 0.00 73 1011.9
20260904155023 70 293 4.0 7.0 0.00 0.00 0.00 73 1011.8
20260904154512 70 280 3.0 8.0 0.00 0.00 0.00 75 1012.0
20260904154017 70 280 4.0 14.0 0.00 0.00 0.00 74 1012.0
20260904153526 70 268 5.0 14.0 0.00 0.00 0.00 74 1012.0
20260904153012 70 280 5.0 9.0 0.00 0.00 0.00 76 1011.8
20260904152521 69 295 5.0 9.0 0.00 0.00 0.00 77 1011.8
20260904152021 69 264 3.0 9.0 0.00 0.00 0.00 79 1011.8
20260904151529 69 302 1.0 9.0 0.00 0.00 0.00 77 1011.9
20260904151017 69 285 2.0 10.0 0.00 0.00 0.00 76 1011.9
20260904150525 70 111 0.0 6.0 0.00 0.00 0.00 78 1011.9
20260904150028 69 277 2.0 8.0 0.00 0.00 0.00 80 1012.0
20260904145520 69 285 1.0 9.0 0.00 0.00 0.00 82 1012.0
20260904145015 68 267 3.0 9.0 0.00 0.00 0.00 83 1012.1
20260904144520 68 210 2.0 9.0 0.00 0.00 0.00 83 1012.2
20260904144007 68 278 6.0 10.0 0.00 0.00 0.00 85 1012.1
20260904143517 68 261 6.0 10.0 0.00 0.00 0.00 85 1012.1
20260904143020 67 290 2.0 8.0 0.00 0.00 0.00 86 1012.1
20260904142524 67 276 5.0 9.0 0.00 0.00 0.00 84 1012.1
20260904142012 67 305 5.0 9.0 0.00 0.00 0.00 84 1012.0
20260904141522 67 304 4.0 10.0 0.00 0.00 0.00 86 1012.0
20260904141019 67 288 5.0 10.0 0.00 0.00 0.00 85 1012.0
20260904140532 67 308 4.0 9.0 0.00 0.00 0.00 85 1011.8
20260904140021 67 295 3.0 9.0 0.00 0.00 0.00 86 1011.8
20260904135517 67 290 4.0 9.0 0.00 0.00 0.00 85 1011.8
20260904135020 67 285 5.0 9.0 0.00 0.00 0.00 84 1011.8
20260904134524 67 293 4.0 12.0 0.00 0.00 0.00 86 1011.7
20260904134012 67 274 6.0 11.0 0.00 0.00 0.00 87 1011.7
20260904133516 66 270 5.0 9.0 0.00 0.00 0.00 87 1011.8
20260904133021 66 282 5.0 10.0 0.00 0.00 0.00 87 1011.8
20260904132512 66 296 6.0 10.0 0.00 0.00 0.00 87 1011.9
20260904132021 66 280 5.0 8.0 0.00 0.00 0.00 88 1011.8
20260904131528 65 294 3.0 9.0 0.00 0.00 0.00 88 1011.8
20260904131015 65 275 4.0 10.0 0.00 0.00 0.00 89 1011.8
20260904130525 65 277 6.0 10.0 0.00 0.00 0.00 89 1011.8
20260904130030 65 291 4.0 8.0 0.00 0.00 0.00 90 1011.8
20260904125518 64 276 4.0 8.0 0.00 0.00 0.00 90 1011.9
20260904125019 64 314 5.0 10.0 0.00 0.00 0.00 91 1011.9
20260904124508 64 288 5.0 8.0 0.00 0.00 0.00 91 1011.9
20260904124012 64 269 4.0 7.0 0.00 0.00 0.00 92 1012.0
20260904123523 64 304 2.0 6.0 0.00 0.00 0.00 92 1012.1
20260904123011 64 284 2.0 7.0 0.00 0.00 0.00 92 1012.1
20260904122517 64 264 3.0 7.0 0.00 0.00 0.00 93 1012.1
20260904122020 64 301 2.0 7.0 0.00 0.00 0.00 93 1012.1
20260904121523 64 259 3.0 6.0 0.00 0.00 0.00 93 1012.1
20260904121008 63 276 3.0 8.0 0.00 0.00 0.00 93 1012.1
20260904120525 63 268 3.0 8.0 0.00 0.00 0.00 93 1012.0
20260904120058 63 293 2.0 7.0 0.00 0.00 0.00 93 1012.0
20260904115557 63 288 3.0 8.0 0.00 0.00 0.00 93 1011.9
20260904115056 63 289 2.0 5.0 0.00 0.00 0.00 94 1011.9
20260904114556 63 278 2.0 6.0 0.00 0.00 0.00 94 1011.9
20260904114056 63 280 3.0 6.0 0.00 0.00 0.00 94 1011.9
20260904113554 62 284 2.0 6.0 0.00 0.00 0.00 94 1011.7
20260904113055 62 296 2.0 6.0 0.00 0.00 0.00 95 1011.7
20260904112553 62 56 0.0 1.0 0.00 0.00 0.00 94 1011.6
20260904112055 62 307 0.0 3.0 0.00 0.00 0.00 94 1011.6
20260904111553 63 307 0.0 4.0 0.00 0.00 0.00 94 1011.5
20260904111052 63 296 1.0 5.0 0.00 0.00 0.00 94 1011.5
20260904110551 63 274 1.0 4.0 0.00 0.00 0.00 94 1011.5
20260904110053 63 246 1.0 4.0 0.00 0.00 0.00 94 1011.3
20260904105550 63 287 1.0 4.0 0.00 0.00 0.00 94 1011.2
20260904105049 63 300 1.0 5.0 0.00 0.00 0.00 94 1011.1
20260904104549 63 300 2.0 5.0 0.00 0.00 0.00 93 1011.0
20260904104047 63 291 2.0 7.0 0.00 0.00 0.00 93 1011.1
20260904103548 64 300 3.0 8.0 0.00 0.00 0.00 93 1011.1
20260904103049 64 295 4.0 8.0 0.00 0.00 0.00 93 1011.0
20260904102551 64 283 3.0 6.0 0.00 0.00 0.00 93 1010.9
20260904102048 64 293 1.0 5.0 0.00 0.00 0.00 92 1011.0
20260904101550 64 285 2.0 8.0 0.00 0.00 0.00 92 1010.9
20260904101050 64 290 4.0 8.0 0.00 0.00 0.00 91 1010.8
20260904100547 64 304 4.0 7.0 0.00 0.00 0.00 91 1010.7
20260904100047 64 285 3.0 7.0 0.00 0.00 0.00 91 1010.6
20260904095545 64 301 4.0 7.0 0.00 0.00 0.00 92 1010.7
20260904095045 64 302 3.0 7.0 0.00 0.00 0.00 92 1010.7
20260904094545 64 314 4.0 8.0 0.00 0.00 0.00 92 1010.8
20260904094045 64 292 4.0 8.0 0.00 0.00 0.00 92 1010.8
20260904093545 64 296 3.0 7.0 0.00 0.00 0.00 93 1010.7
20260904093047 64 288 0.0 3.0 0.00 0.00 0.00 93 1010.6
20260904092546 64 308 0.0 1.0 0.00 0.00 0.00 93 1010.6
20260904092044 64 18 0.0 1.0 0.00 0.00 0.00 92 1010.6
20260904091543 64 3 0.0 1.0 0.00 0.00 0.00 92 1010.6
20260904091041 64 353 0.0 1.0 0.00 0.00 0.00 92 1010.5
20260904090540 64 273 0.0 1.0 0.00 0.00 0.00 91 1010.6
20260904090042 65 273 0.0 3.0 0.00 0.00 0.00 91 1010.5
20260904085540 65 268 1.0 3.0 0.00 0.00 0.00 91 1010.5
20260904085040 65 44 0.0 1.0 0.00 0.00 0.00 90 1010.5
20260904084540 65 46 0.0 4.0 0.00 0.00 0.00 90 1010.5
20260904084039 65 271 0.0 4.0 0.00 0.00 0.00 90 1010.4
20260904083539 65 269 1.0 4.0 0.00 0.00 0.00 91 1010.6
20260904083039 65 61 0.0 0.0 0.00 0.00 0.00 91 1010.5
20260904082539 65 61 0.0 1.0 0.00 0.00 0.00 91 1010.5
20260904082038 64 61 0.0 1.0 0.00 0.00 0.00 91 1010.3
20260904081538 65 65 0.0 0.0 0.00 0.00 0.00 91 1010.4
20260904081037 65 65 0.0 0.0 0.00 0.00 0.00 91 1010.3
20260904080536 65 65 0.0 0.0 0.00 0.00 0.00 90 1010.2
20260904080037 65 65 0.0 2.0 0.00 0.00 0.00 90 1010.3
20260904075536 65 281 0.0 2.0 0.00 0.00 0.00 91 1010.4
20260904075034 65 90 0.0 1.0 0.00 0.00 0.00 90 1010.2
20260904074536 65 90 0.0 1.0 0.00 0.00 0.00 90 1010.1
20260904074034 65 91 0.0 1.0 0.00 0.00 0.00 90 1010.2
20260904073534 65 91 0.0 1.0 0.00 0.00 0.00 90 1010.2
20260904073035 65 91 0.0 1.0 0.00 0.00 0.00 90 1010.2
20260904072535 65 91 0.0 1.0 0.00 0.00 0.00 90 1010.2
20260904072034 65 90 0.0 1.0 0.00 0.00 0.00 90 1010.2
20260904071533 65 91 0.0 1.0 0.00 0.00 0.00 90 1010.2
20260904071032 65 90 0.0 1.0 0.00 0.00 0.00 89 1010.2
20260904070532 65 90 0.0 0.0 0.00 0.00 0.00 89 1010.2
20260904070031 65 90 0.0 0.0 0.00 0.00 0.00 89 1010.2
20260904065530 65 90 0.0 1.0 0.00 0.00 0.00 89 1010.2
20260904065029 66 90 0.0 1.0 0.00 0.00 0.00 88 1010.2
20260904064528 66 90 0.0 1.0 0.00 0.00 0.00 87 1010.3
20260904064028 66 90 0.0 1.0 0.00 0.00 0.00 87 1010.4
20260904063528 66 91 0.0 1.0 0.00 0.00 0.00 87 1010.4
20260904063036 66 91 0.0 1.0 0.00 0.00 0.00 87 1010.5
20260904062528 66 90 0.0 2.0 0.00 0.00 0.00 86 1010.4
20260904062026 66 91 0.0 2.0 0.00 0.00 0.00 87 1010.6
20260904061529 66 70 1.0 2.0 0.00 0.00 0.00 87 1010.7
20260904061025 66 88 0.0 0.0 0.00 0.00 0.00 87 1010.8
20260904060524 66 88 0.0 1.0 0.00 0.00 0.00 87 1010.9
20260904060023 66 88 0.0 1.0 0.00 0.00 0.00 86 1010.9
20260904055522 66 88 0.0 1.0 0.00 0.00 0.00 87 1011.0
20260904055022 66 88 0.0 1.0 0.00 0.00 0.00 87 1011.1
20260904054523 66 88 0.0 0.0 0.00 0.00 0.00 87 1011.1
20260904054021 66 88 0.0 0.0 0.00 0.00 0.00 87 1011.1
20260904053521 66 88 0.0 0.0 0.00 0.00 0.00 86 1011.1
20260904053026 66 88 0.0 1.0 0.00 0.00 0.00 86 1011.1
20260904052521 66 88 0.0 1.0 0.00 0.00 0.00 87 1011.1
20260904052021 66 88 0.0 1.0 0.00 0.00 0.00 86 1011.2
20260904051548 66 88 0.0 1.0 0.00 0.00 0.00 86 1011.2
20260904051021 66 88 0.0 1.0 0.00 0.00 0.00 86 1011.1
20260904050520 66 87 0.0 1.0 0.00 0.00 0.00 86 1011.1
20260904050020 66 88 0.0 1.0 0.00 0.00 0.00 86 1011.1
20260904045520 66 87 0.0 1.0 0.00 0.00 0.00 85 1011.1
20260904045020 66 88 0.0 1.0 0.00 0.00 0.00 85 1011.1
20260904044519 66 88 0.0 1.0 0.00 0.00 0.00 85 1011.1
20260904044019 66 88 0.0 1.0 0.00 0.00 0.00 85 1010.9
20260904043516 66 88 0.0 1.0 0.00 0.00 0.00 86 1011.2
20260904043016 66 88 0.0 1.0 0.00 0.00 0.00 86 1011.2
20260904042517 66 88 0.0 1.0 0.00 0.00 0.00 85 1011.2
20260904042015 66 88 0.0 1.0 0.00 0.00 0.00 86 1011.3
20260904041520 66 88 0.0 1.0 0.00 0.00 0.00 86 1011.3
20260904041014 66 88 0.0 1.0 0.00 0.00 0.00 85 1011.3
20260904040513 66 88 0.0 1.0 0.00 0.00 0.00 85 1011.4
20260904040020 66 88 0.0 1.0 0.00 0.00 0.00 85 1011.4
20260904035514 66 88 0.0 1.0 0.00 0.12 0.00 85 1011.4
20260904035012 66 88 0.0 1.0 0.00 0.12 0.00 86 1011.4
20260904034511 66 87 0.0 1.0 0.00 0.12 0.00 85 1011.4
20260904034011 66 86 0.0 1.0 0.00 0.12 0.00 85 1011.5
20260904033511 66 86 0.0 2.0 0.00 0.12 0.00 85 1011.5
20260904033010 66 91 0.0 2.0 0.00 0.12 0.00 85 1011.6
20260904032511 66 97 0.0 1.0 0.00 0.12 0.00 84 1011.5
20260904032010 66 98 0.0 1.0 0.00 0.12 0.00 85 1011.8
20260904031511 66 98 0.0 1.0 0.00 0.12 0.00 85 1011.6
20260904031013 66 98 0.0 1.0 0.00 0.12 0.00 85 1011.9
20260904030510 66 97 0.0 1.0 0.00 0.12 0.00 85 1011.9
20260904030009 66 97 0.0 1.0 0.00 0.12 0.00 86 1011.5
20260904025509 67 97 0.0 1.0 0.00 0.15 0.00 85 1011.5
20260904025009 67 97 0.0 1.0 0.00 0.15 0.00 84 1011.5
20260904024509 67 97 0.0 1.0 0.00 0.15 0.00 85 1011.5
20260904024009 67 97 0.0 1.0 0.00 0.15 0.00 85 1011.6
20260904023512 67 97 0.0 1.0 0.00 0.15 0.00 85 1011.7
20260904023009 67 98 0.0 1.0 0.00 0.15 0.00 84 1011.9
20260904022509 67 97 0.0 1.0 0.00 0.15 0.00 83 1012.0
20260904022011 67 98 0.0 1.0 0.00 0.15 0.00 84 1012.1
20260904021509 67 97 0.0 1.0 0.00 0.15 0.00 83 1012.1
20260904021011 67 98 0.0 1.0 0.00 0.15 0.00 84 1012.1
20260904020508 67 98 0.0 1.0 0.00 0.15 0.00 84 1012.1
20260904020008 67 96 0.0 1.0 0.00 0.15 0.00 84 1012.2
20260904015507 67 98 0.0 1.0 0.00 0.15 0.00 84 1012.4
20260904015007 67 98 0.0 1.0 0.00 0.15 0.00 84 1012.3
20260904014507 67 92 0.0 1.0 0.00 0.15 0.00 84 1012.1
20260904014010 67 91 0.0 1.0 0.00 0.15 0.00 84 1012.2
20260904013507 67 89 0.0 1.0 0.00 0.15 0.00 85 1012.2
20260904013007 67 89 0.0 1.0 0.00 0.15 0.00 85 1012.2
20260904012507 67 89 0.0 1.0 0.00 0.15 0.00 85 1012.2
20260904012007 67 92 0.0 1.0 0.00 0.15 0.00 84 1012.0
20260904011519 67 92 0.0 1.0 0.00 0.15 0.00 85 1012.0
20260904011016 67 92 0.0 1.0 0.00 0.15 0.00 85 1012.0
20260904010522 67 92 0.0 1.0 0.00 0.15 0.00 85 1012.0
20260904010021 67 92 0.0 1.0 0.00 0.15 0.00 86 1011.9
20260904005519 67 92 0.0 1.0 0.00 0.15 0.00 86 1011.9
20260904005019 67 92 0.0 1.0 0.00 0.15 0.00 86 1011.9
20260904004524 67 91 0.0 1.0 0.00 0.15 0.00 86 1011.9
20260904004009 67 92 0.0 1.0 0.00 0.15 0.00 86 1011.9
20260904003521 67 92 0.0 1.0 0.00 0.15 0.00 87 1012.0
20260904003025 67 92 0.0 1.0 0.00 0.15 0.00 86 1011.9
20260904002509 67 90 0.0 1.0 0.00 0.15 0.00 87 1011.9
20260904002017 67 90 0.0 1.0 0.00 0.15 0.00 87 1011.9
20260904001522 67 90 0.0 1.0 0.00 0.15 0.00 87 1011.8
20260904001007 67 91 0.0 2.0 0.00 0.15 0.00 87 1011.8
20260904000521 67 90 0.0 3.0 0.00 0.15 0.00 87 1011.8
20260904000024 67 91 0.0 3.0 0.00 0.15 0.00 87 1011.8
20260903235520 67 91 0.0 1.0 0.00 0.15 0.00 87 1011.7
20260903235008 67 90 0.0 1.0 0.00 0.15 0.00 87 1011.8
20260903234520 67 91 0.0 1.0 0.00 0.15 0.00 87 1011.8
20260903234005 67 90 0.0 2.0 0.00 0.15 0.00 86 1011.8
20260903233515 67 91 0.0 1.0 0.00 0.15 0.00 87 1011.9
20260903233019 67 84 0.0 0.0 0.00 0.15 0.00 86 1011.8
20260903232508 68 84 0.0 1.0 0.00 0.15 0.00 85 1011.6
20260903232015 68 85 0.0 1.0 0.00 0.15 0.00 86 1011.5
20260903231526 68 85 0.0 1.0 0.00 0.15 0.00 85 1011.4
20260903231012 68 84 0.0 1.0 0.00 0.15 0.00 86 1011.6
20260903230523 69 81 0.0 0.0 0.00 0.15 0.00 85 1011.5
20260903230009 69 82 0.0 1.0 0.00 0.15 0.00 84 1011.5
20260903225516 70 81 0.0 1.0 0.00 0.15 0.00 83 1011.6
20260903225007 71 283 0.0 0.0 0.00 0.15 0.00 80 1011.6
20260903224518 72 283 0.0 0.0 0.00 0.15 0.00 78 1011.6
20260903224022 73 282 0.0 1.0 0.00 0.15 0.00 76 1011.5
20260903223511 73 283 0.0 1.0 0.00 0.15 0.00 72 1011.5
20260903223025 73 280 0.0 2.0 0.00 0.15 0.00 71 1011.5
20260903222530 73 290 0.0 3.0 0.00 0.15 0.00 70 1011.5
20260903222012 74 274 0.0 6.0 0.00 0.15 0.00 70 1011.6
20260903221522 74 296 3.0 6.0 0.00 0.15 0.00 69 1011.5
20260903221008 74 266 2.0 6.0 0.00 0.15 0.00 69 1011.5
20260903220519 75 284 1.0 6.0 0.00 0.15 0.00 68 1011.4
20260903215515 76 285 1.0 5.0 0.00 0.15 0.00 66 1011.3
20260903215021 76 297 0.0 5.0 0.00 0.15 0.00 66 1011.4
20260903214524 76 293 1.0 8.0 0.00 0.15 0.00 67 1011.4
20260903214015 76 321 5.0 8.0 0.00 0.15 0.00 66 1011.4
20260903213521 76 260 2.0 8.0 0.00 0.15 0.00 71 1011.5
20260903213009 76 277 0.0 4.0 0.00 0.15 0.00 72 1011.6
20260903212513 75 298 1.0 4.0 0.00 0.15 0.00 72 1011.7
20260903212020 75 305 1.0 5.0 0.00 0.15 0.00 76 1011.6
20260903211524 76 278 1.0 5.0 0.00 0.15 0.00 76 1011.4
20260903211011 76 280 2.0 5.0 0.00 0.15 0.00 78 1011.3
20260903210518 76 274 2.0 5.0 0.00 0.15 0.00 77 1011.5
20260903210024 76 288 1.0 5.0 0.00 0.15 0.00 75 1011.5
20260903205512 77 288 2.0 4.0 0.00 0.15 0.00 74 1011.5
20260903205014 78 314 2.0 4.0 0.00 0.15 0.00 76 1011.5
20260903204521 78 282 0.0 3.0 0.00 0.15 0.00 76 1011.5
20260903204006 78 298 0.0 7.0 0.00 0.15 0.00 79 1011.5
20260903203518 77 283 3.0 11.0 0.00 0.15 0.00 78 1011.5
20260903203026 76 294 5.0 8.0 0.00 0.15 0.00 78 1011.4
20260903202528 76 290 5.0 10.0 0.00 0.15 0.00 78 1011.4
20260903202015 76 277 5.0 10.0 0.00 0.15 0.00 78 1011.4
20260903201518 76 271 6.0 10.0 0.00 0.15 0.00 78 1011.3
20260903201022 76 270 4.0 9.0 0.00 0.15 0.00 78 1011.3
20260903200510 75 280 5.0 9.0 0.00 0.15 0.00 79 1011.4
20260903200017 75 286 4.0 7.0 0.00 0.15 0.00 79 1011.4
20260903195507 74 270 1.0 6.0 0.00 0.15 0.00 80 1011.4
20260903195012 74 231 1.0 7.0 0.00 0.15 0.00 80 1011.5
20260903194521 75 271 3.0 7.0 0.00 0.15 0.00 79 1011.5
20260903194010 74 314 1.0 5.0 0.00 0.15 0.00 81 1011.6
20260903193517 75 314 2.0 5.0 0.00 0.15 0.00 81 1011.6
20260903193022 75 99 1.0 3.0 0.00 0.15 0.00 81 1011.6
20260903192524 75 129 0.0 8.0 0.00 0.15 0.00 80 1011.5
20260903192010 75 263 3.0 8.0 0.00 0.15 0.00 79 1011.6
20260903191517 75 271 4.0 7.0 0.00 0.15 0.00 79 1011.6
20260903191021 75 278 3.0 7.0 0.00 0.15 0.00 80 1011.5
20260903190509 75 283 4.0 8.0 0.00 0.15 0.00 81 1011.6
20260903190016 76 283 3.0 9.0 0.00 0.15 0.00 78 1011.8
20260903185522 76 294 5.0 10.0 0.00 0.15 0.00 80 1011.8
20260903185010 76 307 6.0 9.0 0.00 0.15 0.00 82 1011.8
20260903184520 75 290 4.0 11.0 0.00 0.15 0.00 81 1011.9
20260903184021 75 276 5.0 14.0 0.00 0.15 0.00 82 1012.0
20260903183509 75 288 7.0 14.0 0.00 0.15 0.00 80 1012.0
20260903183015 75 281 7.0 11.0 0.00 0.15 0.00 81 1012.2
20260903182520 75 278 8.0 13.0 0.00 0.15 0.00 82 1012.0
20260903182005 75 274 8.0 11.0 0.00 0.15 0.00 82 1012.1
20260903181516 74 266 5.0 8.0 0.00 0.15 0.00 84 1012.1
20260903181022 74 283 3.0 7.0 0.00 0.15 0.00 85 1012.1
20260903180511 74 293 2.0 7.0 0.00 0.15 0.00 84 1012.1
20260903180024 74 298 3.0 6.0 0.00 0.15 0.00 84 1012.1